This demonstration page uses our WeatherBlox Daily Observations layout. Learn more.

Left ArrowRight Arrow

39.51506, -84.39828

Hourly Observations for March 29, 2020

Temp ( °F °C ) Dew Point ( °F °C ) Humidity (%) Winds ( mph kmh ) Pressure ( in mb ) Visibility ( mi km ) Precip ( " mm )
12:15 am 00:15 Cloudy with Heavy Thunderstorms 66 18.9 64 17.5 92 92 W 25 41 29.82 1010 4 6.43736 0 0
12:35 am 00:35 Cloudy with Thunderstorms 65 18.4 63 17.3 93 93 SW 16 26 29.8 1009 5 8.0467 0 0
12:55 am 00:55 Cloudy 65 18.1 63 17.3 95 95 SE 9 15 29.75 1007 10 16.0934 0 0
1:15 am 01:15 Partly Cloudy 65 18.4 64 17.6 95 95 S 7 11 29.73 1007 10 16.0934 0 0
1:35 am 01:35 Cloudy 65 18.5 64 17.5 94 94 SSE 7 11 29.72 1006 10 16.0934 0 0
1:55 am 01:55 Mostly Cloudy 65 18.5 64 17.6 95 95 S 9 15 29.71 1006 10 16.0934 0 0
2:15 am 02:15 Mostly Cloudy 65 18.6 64 17.7 95 95 S 9 15 29.69 1005 10 16.0934 0 0
2:35 am 02:35 Mostly Cloudy 66 18.7 63 17.2 91 91 S 12 19 29.69 1005 10 16.0934 0 0
2:55 am 02:55 Mostly Cloudy 66 18.8 63 17.4 92 92 S 14 22 29.68 1005 10 16.0934 0 0
3:15 am 03:15 Partly Cloudy 66 19.1 62 16.8 87 87 S 13 20 29.66 1004 10 16.0934 0 0
3:35 am 03:35 Clear 66 18.7 62 16.6 88 88 S 9 15 29.65 1004 10 16.0934 0 0
3:55 am 03:55 Partly Cloudy 66 19.1 62 16.5 85 85 S 15 24 29.65 1004 10 16.0934 0 0
4:15 am 04:15 Mostly Cloudy 66 19 61 16.3 84 84 S 15 24 29.63 1003 10 16.0934 0 0
4:35 am 04:35 Cloudy 66 18.8 61 16.3 85 85 S 14 22 29.63 1003 10 16.0934 0 0
4:55 am 04:55 Cloudy 66 18.9 61 16.3 85 85 SSW 13 20 29.62 1003 10 16.0934 0 0
5:15 am 05:15 Mostly Cloudy 66 18.9 61 16.1 84 84 SSW 17 28 29.63 1003 10 16.0934 0 0
5:35 am 05:35 Cloudy 67 19.3 61 16.1 82 82 SSW 17 28 29.63 1003 10 16.0934 0 0
5:55 am 05:55 Cloudy 67 19.5 61 15.9 80 80 SSW 18 30 29.64 1004 10 16.0934 0 0
6:15 am 06:15 Partly Cloudy 67 19.3 60 15.7 80 80 SSW 17 28 29.64 1004 10 16.0934 0 0
6:35 am 06:35 Mostly Cloudy 67 19.3 60 15.6 79 79 SSW 18 30 29.64 1004 10 16.0934 0 0
6:55 am 06:55 Mostly Cloudy 66 19 60 15.6 81 81 SSW 14 22 29.64 1004 10 16.0934 0 0
7:15 am 07:15 Mostly Cloudy 65 18.6 60 15.5 82 82 SW 13 20 29.66 1004 10 16.0934 0 0
7:35 am 07:35 Partly Cloudy 65 18.4 60 15.3 82 82 SW 16 26 29.68 1005 10 16.0934 0 0
7:55 am 07:55 Sunny 65 18.1 59 14.8 81 81 SSW 18 30 29.68 1005 10 16.0934 0 0
8:15 am 08:15 Sunny 64 18 57 13.8 77 77 SW 17 28 29.67 1005 10 16.0934 0 0
8:35 am 08:35 Sunny 64 17.9 56 13.2 74 74 SSW 18 30 29.68 1005 10 16.0934 0 0
8:55 am 08:55 Sunny 65 18.5 54 12 66 66 SSW 16 26 29.68 1005 10 16.0934 0 0
9:15 am 09:15 Partly Cloudy 65 18.5 51 10.5 60 60 SW 22 35 29.69 1005 10 16.0934 0 0
9:35 am 09:35 Partly Cloudy 64 18 50 10 60 60 SW 21 33 29.69 1005 10 16.0934 0 0
9:55 am 09:55 Cloudy 67 19.2 47 8.3 49 49 SSW 29 46 29.69 1005 10 16.0934 0 0
10:15 am 10:15 Cloudy 67 19.4 46 7.7 47 47 SW 26 43 29.7 1006 10 16.0934 0 0
10:35 am 10:35 Partly Cloudy 66 18.7 43 6.2 44 44 WSW 28 44 29.72 1006 10 16.0934 0 0
10:55 am 10:55 Mostly Cloudy 65 18.5 44 6.8 47 47 WSW 24 39 29.73 1007 10 16.0934 0 0
11:15 am 11:15 Partly Cloudy 64 17.7 41 5.2 44 44 WSW 32 52 29.74 1007 10 16.0934 0 0
11:35 am 11:35 Partly Cloudy 66 18.9 43 5.9 43 43 WSW 25 41 29.74 1007 10 16.0934 0 0
11:55 am 11:55 Partly Cloudy 64 17.8 42 5.3 44 44 WSW 30 48 29.76 1008 10 16.0934 0 0
12:15 pm 12:15 Mostly Cloudy 65 18.4 41 5.1 42 42 SW 30 48 29.77 1008 10 16.0934 0 0
12:35 pm 12:35 Mostly Cloudy 65 18.4 44 6.8 47 47 WSW 23 37 29.79 1009 10 16.0934 0 0
12:55 pm 12:55 Cloudy 63 17.3 43 6 48 48 WSW 29 46 29.8 1009 10 16.0934 0 0
1:15 pm 13:15 Mostly Cloudy 64 17.7 44 6.4 48 48 WSW 31 50 29.81 1009 10 16.0934 0 0
1:35 pm 13:35 Sunny 63 17.4 42 5.8 47 47 WSW 33 54 29.81 1010 10 16.0934 0 0
1:55 pm 13:55 Partly Cloudy 63 17.2 42 5.3 46 46 WSW 33 54 29.83 1010 10 16.0934 0 0
2:15 pm 14:15 Partly Cloudy 63 17.2 41 5.1 45 45 SW 30 48 29.83 1010 10 16.0934 0 0
2:35 pm 14:35 Sunny 64 17.7 41 5.2 44 44 WSW 30 48 29.84 1010 10 16.0934 0 0
2:55 pm 14:55 Sunny 64 17.6 42 5.6 45 45 WSW 25 41 29.84 1011 10 16.0934 0 0
3:15 pm 15:15 Partly Cloudy 64 17.9 42 5.8 45 45 SW 31 50 29.84 1010 10 16.0934 0 0
3:35 pm 15:35 Sunny 64 17.8 42 5.3 44 44 SW 24 39 29.85 1011 10 16.0934 0 0
3:55 pm 15:55 Sunny 65 18.6 43 5.9 44 44 SW 20 31 29.85 1011 10 16.0934 0 0
4:15 pm 16:15 Sunny 65 18.3 42 5.7 44 44 SW 24 39 29.85 1011 10 16.0934 0 0
4:35 pm 16:35 Sunny 65 18.4 42 5.7 44 44 SW 25 41 29.86 1011 10 16.0934 0 0
4:55 pm 16:55 Partly Cloudy 65 18.1 41 5.2 43 43 SW 25 41 29.87 1011 10 16.0934 0 0
5:15 pm 17:15 Sunny 65 18.3 41 5.1 42 42 WSW 28 44 29.88 1012 10 16.0934 0 0
5:35 pm 17:35 Partly Cloudy 66 18.9 42 5.8 42 42 SW 26 43 29.88 1012 10 16.0934 0 0
5:55 pm 17:55 Sunny 65 18.4 41 5.1 42 42 WSW 29 46 29.88 1012 10 16.0934 0 0
6:15 pm 18:15 Partly Cloudy 65 18.1 41 5 42 42 SW 25 41 29.89 1012 10 16.0934 0 0
6:35 pm 18:35 Sunny 64 17.8 40 4.5 42 42 SW 26 43 29.9 1013 10 16.0934 0 0
6:55 pm 18:55 Sunny 64 17.7 41 4.8 43 43 WSW 17 28 29.89 1012 10 16.0934 0 0
7:15 pm 19:15 Sunny 63 17.3 39 3.8 41 41 WSW 26 43 29.91 1013 10 16.0934 0 0
7:35 pm 19:35 Sunny 62 16.7 40 4.2 44 44 WSW 16 26 29.92 1013 10 16.0934 0 0
7:55 pm 19:55 Sunny 62 16.4 40 4.3 45 45 WSW 22 35 29.92 1013 10 16.0934 0 0
8:15 pm 20:15 Clear 61 16.1 38 3.6 43 43 WSW 17 28 29.93 1014 10 16.0934 0 0
8:35 pm 20:35 Clear 60 15.3 39 3.8 46 46 WSW 14 22 29.96 1014 10 16.0934 0 0
8:55 pm 20:55 Clear 60 15.3 39 3.7 46 46 WSW 17 28 29.96 1014 10 16.0934 0 0
9:15 pm 21:15 Clear 59 15 38 3.6 47 47 WSW 16 26 29.98 1015 10 16.0934 0 0
9:35 pm 21:35 Clear 59 14.8 38 3.4 47 47 SW 15 24 29.98 1015 10 16.0934 0 0
9:55 pm 21:55 Clear 58 14.7 38 3.1 46 46 SW 14 22 29.99 1015 10 16.0934 0 0
10:15 pm 22:15 Clear 58 14.4 37 2.9 46 46 SW 12 19 29.99 1016 10 16.0934 0 0
10:35 pm 22:35 Clear 58 14.3 37 2.6 46 46 SW 17 28 29.99 1016 10 16.0934 0 0
10:55 pm 22:55 Clear 57 13.7 36 2.3 46 46 SW 12 19 30 1016 10 16.0934 0 0
11:15 pm 23:15 Clear 56 13.2 36 2.4 48 48 SW 10 17 30 1016 10 16.0934 0 0
11:35 pm 23:35 Clear 55 12.5 37 2.9 52 52 SW 12 19 30 1016 10 16.0934 0 0
11:55 pm 23:55 Clear 57 13.7 34 1.3 43 43 SW 16 26 30.01 1016 10 16.0934 0 0

Powered by AerisWeather